Dewpoint
29 27 26 25 24 22 20 19 25 25 25 23 22 21 20 19 18 17 16 15 15 14 13 13 13 13 14 16 16 17 21 22 25 27 30 33 34 31 31 31 30 30 29 30
27 26 27 26 25 23 20 23 24 23 23 23 21 20 20 18 17 16 15 14 14 13 11 10 9 9 11 12 14 15 16 19 21 25 27 30 31 29 28 28 28 28 28 28
26 26 27 25 24 23 24 22 24 24 21 21 19 18 17 16 14 14 14 13 12 11 10 8 6 7 8 9 10 11 13 15 17 20 24 26 26 26 25 26 26 26 25 25
24 26 26 26 23 24 21 24 25 22 23 22 21 20 18 15 13 12 12 11 10 9 9 6 5 4 5 7 7 10 9 10 14 15 16 19 20 20 20 22 22 23 23 21
23 24 24 25 24 24 21 25 24 24 23 22 21 20 16 13 12 11 10 9 8 6 4 4 4 3 4 5 7 6 8 8 9 12 13 11 10 12 12 14 13 14 17 14
24 28 25 24 24 24 27 26 25 25 23 20 21 21 17 13 14 10 9 8 4 3 2 2 2 1 2 4 6 5 6 8 8 8 12 11 9 5 8 9 9 10 13 13
25 26 27 27 25 25 26 24 22 21 21 19 22 21 16 14 12 10 8 6 4 3 3 3 2 1 -1 3 4 4 5 5 8 8 7 11 11 8 7 9 11 9 10 11
23 22 26 27 25 23 24 22 20 17 19 20 22 20 14 11 10 9 7 5 3 3 3 2 2 3 1 3 4 6 5 5 6 7 6 8 11 10 7 6 9 10 9 8
23 22 26 28 28 26 24 22 23 22 22 19 18 11 12 9 8 5 4 3 3 3 4 4 4 5 4 4 5 5 5 5 6 6 8 7 8 10 9 6 7 8 8 5
25 22 24 26 27 27 26 26 22 24 20 18 15 12 14 10 8 6 4 3 3 3 2 4 4 5 5 4 6 5 4 4 5 6 7 7 8 8 9 6 6 7 8 7
25 25 20 24 28 26 25 25 25 25 25 22 17 15 10 10 9 6 5 4 4 3 1 2 3 4 5 4 3 5 4 3 4 6 6 6 6 7 6 5 5 5 6 6
22 22 21 22 18 17 18 21 24 25 23 22 17 13 9 11 10 7 5 4 5 3 -0 -0 1 2 2 3 2 3 4 3 3 5 4 3 4 4 3 2 2 4 3 4
19 22 22 19 18 16 16 17 19 21 22 20 19 15 10 10 8 6 5 5 5 3 -1 -2 -1 0 0 1 1 1 3 3 2 2 2 1 0 1 1 0 0 1 2 1
19 17 21 19 19 19 18 15 17 19 22 21 17 7 7 8 7 6 6 8 8 6 -1 -2 -3 -2 -2 -1 -1 -1 1 1 1 1 1 -1 -2 -2 -0 -2 -3 -2 -1 -2
17 16 14 11 13 13 14 13 16 21 17 24 18 11 7 8 7 7 7 7 6 4 -1 -4 -5 -4 -3 -2 -2 -2 -1 -0 -1 -1 -1 -2 -3 -3 -2 -5 -5 -3 -3 -3
25 18 14 14 9 11 10 11 10 11 9 7 6 5 6 3 3 4 4 5 5 4 2 -2 -5 -3 -3 -2 -2 -1 0 -1 -1 -2 -2 -2 -3 -4 -4 -6 -5 -3 -5 -6
24 18 19 14 15 16 16 10 7 7 7 7 5 6 4 4 4 4 4 5 3 4 2 -3 -6 -4 -2 -2 -1 -1 -1 -1 -3 -3 -2 -3 -3 -4 -4 -5 -4 -4 -6 -6
21 18 16 10 11 11 3 7 7 5 4 5 5 5 5 4 2 1 0 0 0 2 -1 -5 -5 -3 -3 -2 -2 -3 -3 -3 -4 -4 -3 -3 -3 -4 -4 -4 -4 -4 -5 -6
23 17 8 6 2 3 4 6 5 5 4 2 3 2 1 -2 -2 -2 0 -2 -1 -3 -6 -5 -4 -4 -4 -3 -3 -3 -3 -5 -5 -5 -5 -3 -3 -4 -5 -6 -5 -5 -5 -5
12 13 6 5 -10 -17 3 5 4 4 3 3 2 1 -2 -3 -2 -5 1 -3 -3 -6 -6 -4 -4 -3 -3 -2 -3 -4 -4 -5 -5 -4 -4 -2 -3 -4 -6 -6 -7 -6 -6 -7
6 7 2 7 -1 0 2 4 3 -2 -1 2 2 0 -4 -5 -6 -1 -1 -2 -6 -6 -5 -3 -1 -1 -1 -2 -3 -3 -3 -4 -3 -3 -3 -2 -5 -7 -8 -8 -8 -8 -8 -9
6 4 5 4 -1 -7 3 3 -0 -0 -1 0 -0 -2 -4 -6 -4 -3 -3 -6 -6 -5 -4 -3 -2 -2 -2 -1 -2 -3 -4 -4 -4 -4 -4 -4 -8 -9 -11 -10 -10 -10 -9 -9
5 4 5 1 1 -2 -2 -0 -3 -3 -0 -2 -2 -4 -3 -5 -6 -6 -8 -6 -6 -4 -3 -1 -1 -1 -1 -2 -2 -4 -5 -4 -5 -5 -5 -7 -10 -10 -11 -10 -10 -10 -9 -7
1 -0 1 -0 2 0 -2 -3 -5 -5 -2 -5 -5 -7 -6 -10 -8 -7 -6 -5 -4 -3 -3 -2 -1 -2 -4 -4 -4 -4 -4 -5 -5 -5 -7 -9 -9 -9 -8 -8 -7 -7 -5 -5
0 0 -1 -3 1 -0 -1 -3 -4 -6 -10 -10 -9 -9 -8 -6 -7 -6 -5 -4 -3 -3 -2 -2 -3 -4 -4 -4 -4 -5 -5 -5 -6 -7 -8 -8 -8 -7 -7 -6 -7 -6 -6 -5
-3 -2 -0 1 1 -0 -1 -3 -6 -6 -7 -6 -5 -7 -6 -5 -5 -3 -3 -3 -3 -3 -4 -4 -3 -3 -4 -4 -4 -5 -6 -7 -8 -7 -7 -7 -5 -5 -4 -4 -3 -0 3 5
Wind_Speed
7 13 25 23 9 4 10 12 11 7 7 11 19 17 10 9 11 12 12 12 13 14 13 17 19 21 21 22 23 25 24 25 21 20 12 9 16 17 18 19 23 23 23 23
8 27 13 10 9 7 8 15 8 13 5 10 16 14 8 5 7 9 10 10 11 10 13 16 19 21 22 22 23 23 24 24 22 16 15 8 9 10 15 16 19 23 23 23
15 4 13 12 10 14 8 15 15 11 13 16 18 4 6 5 11 10 10 10 11 11 12 14 17 19 19 22 22 22 22 22 23 21 16 14 11 11 15 19 19 21 22 23
6 9 21 16 19 18 23 13 19 23 18 10 14 9 8 12 8 7 8 8 9 10 11 13 15 17 18 19 18 19 21 23 22 23 20 21 18 17 15 14 15 16 21 22
14 15 12 17 19 16 14 18 25 21 13 9 12 4 2 16 12 13 10 10 10 10 11 12 13 15 16 17 16 18 18 21 22 22 21 18 19 15 13 14 17 19 18 21
8 2 10 13 8 21 18 16 12 8 4 12 18 15 8 15 12 17 13 11 11 10 11 12 12 13 14 16 17 17 18 20 20 20 21 21 21 18 18 19 17 16 16 17
7 7 3 6 9 10 12 20 7 7 11 9 15 15 1 8 16 22 23 15 12 11 10 11 12 12 13 15 17 15 17 19 18 19 20 19 18 17 16 16 15 17 16 17
12 9 12 7 8 13 18 19 10 11 9 6 13 11 2 7 15 19 18 16 13 11 10 10 10 10 11 12 14 14 15 16 16 17 17 16 16 13 13 14 13 13 13 13
17 12 1 1 2 12 11 22 7 4 2 7 7 1 3 12 16 18 19 16 12 11 9 8 8 9 9 10 12 13 13 14 15 15 13 14 14 15 14 13 12 12 12 15
6 5 1 2 1 1 6 10 12 4 9 9 5 5 9 24 25 21 19 15 13 11 9 7 7 7 7 8 8 9 11 11 11 12 12 12 12 12 12 11 14 14 13 14
5 2 2 5 9 6 5 6 3 3 6 6 6 7 4 24 27 25 20 17 15 12 9 7 6 6 6 7 9 9 10 10 11 11 11 11 11 11 11 11 12 13 13 14
7 4 6 4 2 3 0 4 7 15 9 7 3 6 7 13 24 23 21 18 14 12 9 6 5 5 6 7 9 9 9 10 10 10 11 11 10 11 13 13 13 12 14 13
10 6 5 2 2 1 6 4 3 2 2 13 12 6 9 21 20 18 22 17 15 13 9 5 5 5 6 7 8 9 10 10 11 11 12 12 12 13 13 14 13 13 13 14
4 5 10 21 4 3 8 6 4 3 9 11 8 12 13 20 23 18 17 15 15 13 9 4 3 4 6 7 8 10 11 10 10 11 11 12 13 13 12 13 14 14 14 15
3 9 6 8 4 4 4 5 6 7 3 10 9 11 26 21 23 19 16 15 14 12 9 2 4 6 7 8 8 8 9 10 9 11 12 12 12 12 11 13 13 14 14 14
2 6 6 4 8 5 6 8 12 8 7 11 11 4 7 12 14 15 17 16 14 13 10 2 3 5 6 7 8 8 9 10 8 11 12 13 13 12 11 13 14 13 14 15
6 12 7 7 6 6 2 3 3 5 3 6 8 6 22 19 18 18 17 13 12 11 10 4 6 7 8 8 8 9 10 8 10 11 12 12 12 12 11 12 12 13 14 13
8 7 5 7 8 5 1 2 1 11 5 4 10 22 18 16 8 9 7 11 10 8 6 6 8 7 8 7 9 11 10 11 12 13 14 13 12 12 12 12 13 13 12 14
9 7 7 10 8 1 2 6 9 5 2 2 15 17 15 11 7 4 4 5 8 7 5 7 9 9 9 12 14 12 13 13 12 15 15 14 13 13 14 15 14 14 13 13
9 8 6 5 6 8 2 4 1 2 6 10 13 20 19 12 12 4 10 7 5 5 6 9 10 9 11 15 12 12 16 15 17 16 16 13 13 13 15 15 15 12 12 13
5 4 6 6 3 1 2 4 0 5 8 19 15 16 14 7 3 6 7 3 3 6 9 9 11 14 15 14 12 16 16 18 16 14 14 14 13 15 15 15 14 13 13 13
3 6 4 5 5 5 7 5 3 3 4 14 13 11 9 9 6 2 3 7 7 9 11 11 13 16 16 13 12 17 19 17 14 14 15 15 14 15 14 15 15 14 14 15
4 2 7 2 3 1 2 2 3 2 11 8 12 7 7 5 3 2 4 7 10 11 11 11 13 16 15 13 13 17 21 14 15 15 17 17 16 16 15 16 16 15 14 15
2 1 6 4 2 4 5 4 4 6 11 11 10 8 6 4 3 5 8 9 11 12 13 13 14 17 21 14 15 18 18 16 15 19 19 17 17 17 16 15 14 15 14 14
0 2 8 7 4 4 1 2 6 11 12 12 7 5 4 4 5 6 10 12 13 13 13 13 15 16 19 17 18 17 16 15 18 19 19 18 17 18 18 16 16 15 16 16
3 3 5 7 15 3 9 12 9 13 11 7 4 2 2 4 7 8 12 13 14 15 15 15 16 17 19 18 19 19 16 15 19 20 18 17 17 16 15 15 17 20 25 27
Wind_Direction
178 182 203 208 188 185 144 138 128 85 100 77 108 120 112 103 94 93 83 73 69 58 48 40 33 27 23 23 22 21 18 15 18 18 11 15 32 29 30 29 27 25 23 21
157 213 200 187 195 192 178 143 113 84 74 85 127 112 110 103 94 101 100 84 77 61 47 41 34 28 24 23 20 20 20 20 20 21 18 27 23 31 33 27 28 25 25 23
192 218 163 187 198 198 188 170 166 156 106 77 129 129 170 111 111 101 90 90 77 66 56 44 38 29 24 23 18 23 20 21 23 21 26 35 40 35 23 20 21 21 24 23
220 201 191 196 213 197 221 185 154 143 162 199 211 230 206 175 157 135 116 96 88 74 62 54 42 35 28 20 20 22 25 26 24 24 32 38 44 40 24 16 19 21 23 24
210 188 181 197 212 182 219 151 168 170 159 143 201 249 166 156 200 180 152 124 101 85 72 59 50 42 32 23 19 21 26 29 26 29 33 38 40 34 25 21 24 21 19 22
207 177 186 197 192 182 134 119 90 130 148 227 193 202 214 188 205 161 154 141 123 101 80 65 50 46 35 26 20 26 24 26 23 28 30 36 37 31 28 22 21 16 14 15
202 214 195 157 141 159 153 149 131 200 207 227 175 190 226 193 156 163 157 142 124 110 92 70 50 39 37 30 25 24 24 26 20 24 28 26 30 29 29 22 17 14 10 12
185 208 183 189 178 182 175 182 173 198 196 177 151 222 188 103 112 128 131 131 125 107 94 78 62 49 37 32 27 21 25 24 21 22 26 23 25 27 26 19 14 16 11 7
191 214 138 137 161 159 195 209 183 115 101 170 180 62 200 137 135 137 139 139 133 120 104 90 72 57 42 32 29 24 24 22 21 21 15 19 19 22 17 15 16 12 9 6
196 187 222 146 49 193 173 171 197 191 200 223 228 236 215 182 173 165 159 151 141 130 115 98 78 62 51 39 31 30 27 23 15 16 12 15 11 13 11 12 12 8 2 1
162 176 170 157 205 215 167 185 182 198 211 232 231 232 1 186 172 167 162 155 148 139 125 107 84 64 51 38 29 26 22 19 16 11 5 7 7 6 8 10 5 1 358 359
177 129 172 194 147 97 159 211 205 210 196 209 236 238 341 170 163 157 154 154 144 141 130 107 82 57 35 22 17 15 11 15 7 359 1 3 1 3 8 5 358 354 358 354
178 190 210 203 218 256 211 186 185 124 133 209 212 216 353 139 142 150 145 149 149 146 132 99 63 35 14 4 2 1 360 358 355 357 359 357 358 358 356 353 350 351 353 350
98 123 215 226 192 148 184 173 143 169 217 217 226 159 175 155 150 147 148 147 151 155 145 108 54 9 350 345 341 343 342 342 340 345 348 347 346 342 338 338 343 345 344 344
131 186 114 64 60 88 108 138 143 183 179 212 198 174 181 168 157 154 149 152 159 171 176 133 18 352 336 330 327 324 319 322 328 331 334 331 327 328 327 333 333 333 334 334
37 149 121 98 60 90 110 79 98 96 114 92 128 137 154 134 127 148 164 168 182 194 199 206 338 303 293 294 299 306 312 314 321 319 318 317 321 323 319 322 324 324 324 327
172 145 151 161 114 81 223 175 106 118 81 135 177 169 149 152 161 167 171 182 194 204 204 243 303 285 279 287 286 294 301 301 309 306 305 307 308 308 302 309 312 312 314 315
140 114 83 126 137 196 167 341 251 120 80 56 111 134 144 148 132 151 174 188 207 196 209 269 283 283 291 293 295 295 295 297 301 303 301 301 300 298 294 301 303 302 302 306
182 143 117 155 190 180 211 186 159 169 58 131 137 128 122 120 114 206 213 202 186 183 240 261 267 276 288 293 295 298 299 298 297 296 294 291 291 291 289 295 295 295 294 296
97 100 127 153 163 213 141 163 181 215 131 167 149 146 146 145 167 206 176 173 198 243 256 286 296 294 292 291 290 290 289 290 288 287 283 279 278 275 277 277 282 281 275 286
127 58 141 126 116 303 181 164 234 159 161 156 158 152 149 151 123 131 158 216 274 299 300 291 286 281 280 285 283 283 282 278 273 270 268 268 267 268 269 271 267 268 269 275
134 132 138 115 115 190 165 123 160 146 88 138 144 148 136 118 141 170 249 277 292 290 293 287 284 283 284 280 277 276 274 272 268 267 268 266 264 265 276 274 274 268 265 273
150 88 145 77 129 342 16 76 93 96 129 134 134 140 131 154 196 204 259 278 285 286 284 277 273 281 277 265 260 269 271 273 272 270 272 269 273 272 272 275 274 272 263 262
48 360 91 137 50 75 73 85 77 84 115 120 113 132 160 187 210 264 288 290 292 291 290 284 282 282 285 275 268 258 266 269 266 269 268 269 268 269 259 255 257 262 258 257
222 126 119 78 107 100 136 173 121 108 111 112 104 136 169 198 253 265 292 298 294 289 285 279 278 276 276 277 271 266 268 264 267 268 269 267 267 267 267 260 256 254 254 251
349 134 141 161 170 122 151 156 147 137 147 147 129 127 201 224 279 289 289 284 285 286 283 279 274 274 279 280 277 277 273 262 263 269 271 267 267 264 259 261 267 263 272 274